Content
SEND FEEDBACK

Daily
Averages
Monthly
Summary
United States of America

TYRONE, PENNSYLVANIA


Home > North America > United States > Pennsylvania
Elevation: 1080 feet     Latitude: 40 43N     Longitude: 078 11W

WEATHER
 
SELECT A DAY
Number of Records: 302,722;   Date Range: 1/1/95 - 9/20/14
 
SHARE

PRINT THIS DATA

[ ← Previous Day ]
WEATHER ALMANAC - JANUARY 3, 2013
[ Next Day → ]
[ °C ]   °F
Weather ElementAverageHighLow
Temperature23.1 °F30.6 °F (8:55 pm)10.4 °F (6:53 am)
Dewpoint13.3 °F18.7 °F (11:35 pm)6.8 °F (6:53 am)
Humidity67.4 %92 % (7:53 am)50 % (11:53 am)
Barometer30.10 in30.16 in (12:35 am)30.04 in (3:53 pm)
Wind Speed7.9 mph17.3 mph (11:55 pm)
Wind Gust23 mph (4:53 pm)
Weather ElementAverage
Visibility9.8 mi
Wind DirectionS (178.2 °)

Weather ElementTotal
Precipitation---
Heating Degree Days44.5 (Base 65)
Averaged from 39 records on January 3, 2013
WEATHER CONDITIONS BREAKOUT
WIND DIRECTION BREAKOUT
WEATHER BY HOUR - JANUARY 3, 2013
[ °C ]   °F
Local TimeTemperatureDewpointHumidityBarometerVisibilityWind DirectionWind SpeedGust SpeedPrecipitationEventsConditions
12:35 AM17.1 °F9.7 °F73 %30.16 in10.0 miWSW (240°)4.6 mphClear
12:55 AM16.7 °F9.7 °F74 %30.16 in10.0 miSW (230°)4.6 mphClear
1:15 AM17.1 °F10.0 °F74 %30.15 in10.0 miSSW (210°)3.5 mphClear
1:35 AM15.8 °F9.5 °F76 %30.15 in10.0 miCalmClear
2:15 AM15.8 °F9.5 °F76 %30.16 in10.0 miCalmClear
2:55 AM14.7 °F9.0 °F78 %30.16 in10.0 miCalmClear
3:15 AM14.5 °F9.5 °F80 %30.16 in10.0 miCalmClear
3:35 AM14.0 °F9.5 °F82 %30.15 in10.0 miCalmClear
3:55 AM13.8 °F9.3 °F82 %30.15 in10.0 miCalmClear
4:15 AM13.1 °F7.9 °F80 %30.14 in10.0 miSW (230°)3.5 mphClear
4:35 AM14.4 °F9.0 °F79 %30.15 in10.0 miWSW (250°)5.8 mphClear
5:53 AM12.2 °F8.6 °F85 %30.15 in10.0 miCalmClear
6:53 AM10.4 °F6.8 °F85 %30.14 in10.0 miCalmClear
7:53 AM10.4 °F8.6 °F92 %30.14 in10.0 miCalmClear
8:53 AM12.2 °F8.6 °F85 %30.15 in10.0 miCalmClear
9:53 AM17.6 °F10.4 °F73 %30.15 in10.0 miSW (230°)4.6 mphClear
10:53 AM23.0 °F10.4 °F59 %30.15 in1.0 miCalmClear
11:53 AM24.8 °F8.6 °F50 %30.11 in10.0 miWest (260°)11.5 mphOvercast
12:53 PM26.6 °F12.2 °F55 %30.08 in10.0 miWSW (240°)10.4 mphMostly Cloudy
1:26 PM26.6 °F14.0 °F59 %30.07 in10.0 miWSW (240°)11.5 mphScattered Clouds
1:53 PM28.4 °F12.2 °F51 %30.06 in10.0 miWest (270°)11.5 mphScattered Clouds
2:53 PM30.2 °F14.0 °F51 %30.05 in10.0 miSW (230°)9.2 mphPartly Cloudy
3:53 PM30.2 °F17.6 °F60 %30.04 in10.0 miWSW (240°)6.9 mphMostly Cloudy
4:53 PM30.2 °F15.8 °F55 %30.04 in10.0 miWest (270°)11.5 mph23.0 mphOvercast
5:53 PM30.2 °F17.6 °F60 %30.06 in10.0 miWSW (250°)11.5 mphOvercast
6:53 PM30.2 °F17.6 °F60 %30.06 in10.0 miWSW (250°)11.5 mphOvercast
7:53 PM30.2 °F17.6 °F60 %30.07 in10.0 miWest (280°)11.5 mphOvercast
8:15 PM30.2 °F18.1 °F61 %30.07 in10.0 miWSW (250°)12.7 mph18.4 mphOvercast
8:35 PM30.2 °F18.1 °F61 %30.07 in10.0 miWSW (250°)15.0 mphOvercast
8:53 PM30.2 °F17.6 °F60 %30.07 in10.0 miWest (260°)11.5 mph23.0 mphOvercast
8:55 PM30.6 °F17.8 °F59 %30.07 in10.0 miWest (260°)16.1 mph20.7 mphOvercast
9:15 PM30.4 °F17.8 °F60 %30.07 in10.0 miWSW (250°)11.5 mph20.7 mphOvercast
9:35 PM30.2 °F18.0 °F60 %30.07 in10.0 miWest (260°)16.1 mph21.9 mphOvercast
9:55 PM30.2 °F17.8 °F60 %30.07 in10.0 miWSW (250°)16.1 mph21.9 mphOvercast
10:15 PM30.2 °F18.0 °F60 %30.08 in10.0 miWSW (250°)15.0 mph23.0 mphOvercast
10:55 PM30.0 °F18.1 °F61 %30.08 in10.0 miWest (260°)12.7 mphOvercast
11:15 PM29.7 °F18.1 °F62 %30.08 in10.0 miWest (260°)15.0 mph21.9 mphOvercast
11:35 PM29.3 °F18.7 °F65 %30.08 in10.0 miWSW (240°)16.1 mph21.9 mphOvercast
11:55 PM29.3 °F18.5 °F64 %30.07 in10.0 miWSW (240°)17.3 mphOvercast
Hourly data recorded from KUNV, located miles away from Tyrone, Pennsylvania







STORIES FROM OUR PARTNERS